Location: Saluda
(35.2377°N, 82.3468°W)
Time: 03:48:21
(UTC+00:00)

Vanguard 2 Rocket - Pass Details

Date: 09 October 2022
Orbit: 555 x 3321 km, 32.9° (Epoch: 05 December)

Event Time Altitude Azimuth Distance (km) Brightness Sun altitude
Rises 23:46:46 0° 213° (SSW) 7,061 11.9 -9.7°
Reaches altitude 10° 23:51:56 10° 206° (SSW) 6,196 11.5 -10.7°
Maximum altitude 00:09:32 39° 146° (SSE) 4,155 9.9 -14.3°
Enters shadow 00:20:30 20° 95° (E) 4,694 9.8 -16.6°
Drops below altitude 10° 00:24:06 10° 86° (E) 5,217 - -17.3°
Sets 00:27:55 0° 79° (ENE) 5,895 - -18.1°
